This is the latest recevied weather packets stored in our database for station/object KLEMETTI. If no packets are shown the sender has not sent any weather packets the latest 10 day(s).
| Time | Temp. | Humidity | Pressure | Rain* | Wind** | Luminosity | Snow |
|---|---|---|---|---|---|---|---|
| 1777361207 | 2.78° C | 55% | 1024.8 hPa | 0 mm | - | - | - |
| 1777360007 | 2.78° C | 56% | 1024.6 hPa | 0 mm | - | - | - |
| 1777358808 | 3.89° C | 54% | 1024.5 hPa | 0 mm | - | - | - |
| 1777357607 | 3.33° C | 58% | 1024.4 hPa | 0 mm | - | - | - |
| 1777356407 | 2.78° C | 56% | 1024.3 hPa | 0 mm | - | - | - |
| 1777355207 | 2.78° C | 58% | 1024.1 hPa | 0 mm | - | - | - |
| 1777354007 | 2.78° C | 58% | 1024 hPa | 0 mm | - | - | - |
| 1777352807 | 2.78° C | 58% | 1023.9 hPa | 0 mm | - | - | - |
| 1777351607 | 2.78° C | 62% | 1023.8 hPa | 0 mm | - | - | - |
| 1777350407 | 2.22° C | 64% | 1023.8 hPa | 0 mm | - | - | - |
| 1777349207 | 2.22° C | 65% | 1023.7 hPa | 0 mm | - | - | - |
| 1777348007 | 2.22° C | 63% | 1023.6 hPa | 0 mm | - | - | - |
| 1777346807 | 2.22° C | 63% | 1023.5 hPa | 0 mm | - | - | - |
| 1777345607 | 1.67° C | 65% | 1023.4 hPa | 0 mm | - | - | - |
| 1777344407 | 1.67° C | 65% | 1023.3 hPa | 0 mm | - | - | - |
| 1777343207 | 1.67° C | 67% | 1023.3 hPa | 0 mm | - | - | - |
| 1777342008 | 1.67° C | 64% | 1023.2 hPa | 0 mm | - | - | - |
| 1777340807 | 1.67° C | 59% | 1023.2 hPa | 0 mm | - | - | - |
| 1777339607 | 2.22° C | 54% | 1023.2 hPa | 0 mm | - | - | - |
| 1777338407 | 2.22° C | 55% | 1023 hPa | 0 mm | - | - | - |
| 1777337207 | 2.78° C | 58% | 1023 hPa | 0 mm | - | - | - |
| 1777336007 | 2.78° C | 61% | 1022.9 hPa | 0 mm | - | - | - |
| 1777333607 | 2.78° C | 61% | 1022.6 hPa | 0 mm | - | - | - |
| 1777332407 | 3.33° C | 61% | 1022.5 hPa | 0 mm | - | - | - |
| 1777331206 | 3.33° C | 60% | 1022.2 hPa | 0 mm | - | - | - |
* Rain latest hour (hover to see other rain measurements)
** Current wind speed in m/s (hover to see current wind gust speed)